[[{"header":{"parameterUnit":"m.s-1","parameterCategory":2,"la1":30.2991,"la2":30.254,"lo1":-89.0895,"lo2":-89.0444,"dy":0.0017,"dx":0.0017,"nx":28,"ny":28,"refTime":"2024-02-07T09:00:00:Z","depth":"0","parameterNumber":2,"parameterNumberName":"U-component_of_CURRENTS"},"data":[0,0,0,0,0,0,0,0,0,0,0,0,0,0,0,0,0,0,0,0,0,0,0,0,0,0,0,0,0,0,0,0,0,0,0,0,0,0,0,0,0,0,0,0,0,0,0,0,0,0,0,0,0,0,0,0,0,0,-0.2936,-0.2937,0,-0.2979,-0.298,-0.298,-0.2959,-0.2958,-0.2958,-0.2957,-0.2982,-0.2983,-0.2985,0,0,0,0,0,0,0,0,0,0,0,0,0,-0.285,-0.2851,-0.2936,-0.2937,-0.2938,-0.2979,-0.298,-0.298,-0.296,-0.2958,-0.2957,-0.2956,-0.2981,-0.2983,-0.2985,0,0,0,0,0,0,0,0,0,0,0,0,0,-0.2887,-0.2852,-0.2936,-0.2934,-0.2935,-0.2979,-0.298,-0.298,-0.296,-0.2958,-0.2957,-0.2956,-0.2981,-0.2983,-0.2985,-0.3025,0,0,-0.2992,-0.2993,0,0,0,0,0,0,0,0,-0.2885,-0.289,-0.2934,-0.2935,-0.2935,-0.2965,-0.2958,-0.2995,-0.296,-0.2948,-0.2957,-0.2955,-0.2977,-0.2979,-0.2987,-0.3026,-0.3028,-0.2992,-0.2993,-0.2994,-0.2995,0,0,0,0,0,0,0,-0.2883,-0.2888,-0.2951,-0.2935,-0.2936,-0.2936,-0.2939,-0.2965,-0.2967,-0.2949,-0.2948,-0.2957,-0.2976,-0.2985,-0.2988,-0.3028,-0.2992,-0.2994,-0.2995,-0.2996,-0.308,-0.3081,0,0,0,0,0,0,-0.2883,-0.2886,-0.295,-0.2953,-0.2909,-0.2939,-0.2943,-0.2955,-0.2967,-0.2969,-0.2958,-0.2956,-0.2982,-0.2985,-0.2988,-0.3027,-0.2994,-0.2996,-0.2998,-0.3079,-0.308,-0.3081,0,0,0,0,0,0,-0.2881,-0.2889,-0.2948,-0.2922,-0.2929,-0.2942,-0.2956,-0.2956,-0.296,-0.2975,-0.2975,-0.2961,-0.2981,-0.2985,-0.3004,-0.3028,-0.2997,-0.2999,-0.3078,-0.3079,-0.3081,-0.3111,0,0,0,0,0,0,-0.2879,-0.2888,-0.2894,-0.2922,-0.2931,-0.298,-0.2957,-0.2958,-0.2969,-0.2966,-0.2978,-0.2979,-0.298,-0.3001,-0.3006,-0.303,-0.3001,-0.3077,-0.3079,-0.308,-0.3109,-0.3113,-0.3117,0,0,0,0,0,-0.2875,-0.2891,-0.2894,-0.2901,-0.294,-0.2981,-0.2986,-0.2988,-0.2971,-0.2983,-0.298,-0.2978,-0.3015,-0.3003,-0.301,-0.3035,-0.3076,-0.3078,-0.308,-0.3107,-0.3112,-0.3116,0,0,0,0,0,0,-0.285,-0.2891,-0.2895,-0.2919,-0.295,-0.2978,-0.2988,-0.2991,-0.3,-0.2991,-0.2991,-0.2993,-0.302,-0.3024,-0.3011,-0.3063,-0.3046,-0.3049,-0.3064,-0.3069,-0.3073,-0.3065,-0.3003,0,0,0,0,0,-0.2851,-0.2872,-0.2913,-0.293,-0.2948,-0.2968,-0.2982,-0.299,-0.3004,-0.3005,-0.3012,-0.3019,-0.3037,-0.3047,-0.3064,-0.3096,-0.3074,-0.3116,-0.312,-0.3123,-0.3121,-0.3103,-0.3105,-0.3088,-0.3088,-0.3088,0,0,-0.2842,-0.2869,-0.2878,-0.2926,-0.2946,-0.2985,-0.2972,-0.3001,-0.3026,-0.3009,-0.3034,-0.3037,-0.3049,-0.308,-0.3093,-0.3083,-0.3117,-0.3126,-0.3128,-0.3124,-0.3105,-0.3107,-0.3108,-0.3089,-0.3089,-0.3088,0,0,-0.2849,-0.2865,-0.2892,-0.2926,-0.2969,-0.2991,-0.3001,-0.3036,-0.3042,-0.3074,-0.3063,-0.3071,-0.3107,-0.3112,-0.3122,-0.3159,-0.3138,-0.3173,-0.3189,-0.3172,-0.3173,-0.3173,-0.3143,-0.3141,-0.3174,-0.3174,-0.3174,0,-0.2837,-0.2879,-0.2905,-0.2947,-0.2973,-0.2996,-0.3035,-0.3058,-0.309,-0.3098,-0.3085,-0.3116,-0.3121,-0.3152,-0.3161,-0.3169,-0.3149,-0.317,-0.3176,-0.3176,-0.3176,-0.3145,-0.3142,-0.3176,-0.3176,-0.3176,-0.3175,0,-0.2875,-0.2908,-0.2928,-0.2989,-0.3021,-0.3058,-0.31,-0.3126,-0.3132,-0.3148,-0.3172,-0.3171,-0.3184,-0.3193,-0.3189,-0.3203,-0.3185,-0.3181,-0.316,-0.3179,-0.3146,-0.3142,-0.3178,-0.3178,-0.3177,-0.3177,0,0,-0.2839,-0.2937,-0.2939,-0.2975,-0.3045,-0.3075,-0.3127,-0.3176,-0.3198,-0.3217,-0.3235,-0.3254,-0.3238,-0.3245,-0.3239,-0.3224,-0.3203,-0.3204,-0.3202,-0.3167,-0.3154,-0.309,-0.3079,-0.3199,-0.3198,-0.3198,-0.3128,0,-0.2857,-0.2934,-0.2981,-0.3046,-0.3086,-0.3133,-0.3177,-0.3221,-0.3244,-0.327,-0.3267,-0.3281,-0.3265,-0.3262,-0.3248,-0.3221,-0.3195,-0.3222,-0.3146,-0.3144,-0.3079,-0.3073,-0.2974,-0.2899,-0.3124,-0.3124,-0.3123,0,-0.2869,-0.2923,-0.2989,-0.3075,-0.3096,-0.3136,-0.3198,-0.3245,-0.3293,-0.3307,-0.3319,-0.3317,-0.3312,-0.3284,-0.3235,-0.3253,-0.3202,-0.317,-0.3167,-0.3092,-0.3072,-0.2918,-0.2883,-0.2847,-0.3117,-0.3117,-0.3118,0,-0.2816,-0.292,-0.2968,-0.2999,-0.3104,-0.3132,-0.3181,-0.3242,-0.3272,-0.332,-0.3332,-0.3336,-0.3322,-0.3279,-0.3218,-0.3224,-0.3147,-0.3148,-0.304,-0.3034,-0.2927,-0.2912,-0.2839,-0.3094,-0.3095,-0.3095,-0.3095,0,-0.2807,-0.2841,-0.2945,-0.2971,-0.3018,-0.3102,-0.3144,-0.3199,-0.3261,-0.3285,-0.3333,-0.3336,-0.3317,-0.3278,-0.3223,-0.3114,-0.3147,-0.3032,-0.301,-0.2934,-0.2922,-0.2867,-0.289,-0.3092,-0.3093,-0.3093,-0.3094,0,-0.2729,-0.2806,-0.286,-0.2965,-0.2992,-0.3018,-0.3108,-0.3135,-0.3216,-0.3247,-0.3258,-0.3317,-0.3275,-0.324,-0.3164,-0.3102,-0.296,-0.2968,-0.2875,-0.2843,-0.2708,-0.2737,-0.2638,-0.256,-0.2837,-0.2835,-0.2833,0,-0.2695,-0.2716,-0.2817,-0.2834,-0.2875,-0.2932,-0.2963,-0.3078,-0.3114,-0.322,-0.3223,-0.3229,-0.3207,-0.3098,-0.2995,-0.2879,-0.2863,-0.2721,-0.2714,-0.2675,-0.2692,-0.2707,-0.265,-0.2582,-0.2578,-0.2575,-0.2573,0,-0.2609,-0.2642,-0.2679,-0.2724,-0.2758,-0.2809,-0.2873,-0.29,-0.303,-0.3069,-0.3117,-0.3118,-0.3052,-0.2911,-0.2784,-0.2701,-0.2657,-0.2655,-0.2636,-0.25,-0.2489,-0.241,-0.2658,-0.2546,-0.2549,-0.2551,-0.2552,-0.2553,-0.2512,-0.2511,-0.2559,-0.2586,-0.2629,-0.2665,-0.2644,-0.2734,-0.2778,-0.2805,-0.2922,-0.2887,-0.2823,-0.2641,-0.2554,-0.2384,-0.2448,-0.2314,-0.2355,-0.2375,-0.229,-0.2474,-0.2331,-0.2332,-0.2333,-0.2334,-0.2335,0,-0.2386,-0.2399,-0.2417,-0.2447,-0.2431,-0.251,-0.2554,-0.2508,-0.2497,-0.2579,-0.2587,-0.2572,-0.2436,-0.2382,-0.2233,-0.212,-0.206,-0.2071,-0.2072,-0.2028,-0.2192,-0.217,-0.1958,-0.1959,-0.1959,-0.1959,-0.1959,-0.1959,-0.2317,-0.2289,-0.2306,-0.2239,-0.2244,-0.2166,-0.2148,-0.2115,-0.2136,-0.2109,-0.2137,-0.2224,-0.2207,-0.2292,-0.212,-0.2003,-0.1936,-0.1884,-0.1897,-0.2035,-0.2062,-0.2087,-0.2069,-0.184,-0.184,-0.1652,-0.1651,-0.165]},{"header":{"parameterUnit":"m.s-1","parameterCategory":2,"la1":30.2991,"la2":30.254,"lo1":-89.0895,"lo2":-89.0444,"dy":0.0017,"dx":0.0017,"nx":28,"ny":28,"refTime":"2024-02-07T09:00:00:Z","depth":"0","parameterNumber":3,"parameterNumberName":"V-component_of_CURRENTS"},"data":[0,0,0,0,0,0,0,0,0,0,0,0,0,0,0,0,0,0,0,0,0,0,0,0,0,0,0,0,0,0,0,0,0,0,0,0,0,0,0,0,0,0,0,0,0,0,0,0,0,0,0,0,0,0,0,0,0,0,-0.0309,-0.0308,0,-0.0241,-0.024,-0.0239,-0.0185,-0.0185,-0.0185,-0.0184,-0.0066,-0.0064,-0.0061,0,0,0,0,0,0,0,0,0,0,0,0,0,-0.0338,-0.0337,-0.0309,-0.0308,-0.0307,-0.0241,-0.024,-0.0239,-0.0185,-0.0185,-0.0185,-0.0184,-0.0067,-0.0064,-0.0061,0,0,0,0,0,0,0,0,0,0,0,0,0,-0.0302,-0.0337,-0.0309,-0.0274,-0.027,-0.0241,-0.024,-0.0239,-0.0186,-0.0185,-0.0184,-0.0184,-0.0068,-0.0064,-0.006,-0.0046,0,0,-0.0048,-0.0046,0,0,0,0,0,0,0,0,-0.0304,-0.03,-0.028,-0.0276,-0.0272,-0.0222,-0.0207,-0.0172,-0.0186,-0.0216,-0.0184,-0.0184,-0.0115,-0.0107,-0.0094,-0.0041,-0.0036,-0.0047,-0.0045,-0.0043,-0.0042,0,0,0,0,0,0,0,-0.0306,-0.0303,-0.028,-0.0279,-0.0274,-0.0243,-0.0238,-0.02,-0.0168,-0.0213,-0.021,-0.0205,-0.0113,-0.0099,-0.0091,-0.0034,-0.0047,-0.0044,-0.0041,-0.0039,0.0036,0.0035,0,0,0,0,0,0,-0.0322,-0.0306,-0.0282,-0.0278,-0.0289,-0.0243,-0.0237,-0.0238,-0.0169,-0.0159,-0.0205,-0.0203,-0.0106,-0.0096,-0.0087,-0.0061,-0.0043,-0.0039,-0.0037,0.0036,0.0035,0.0035,0,0,0,0,0,0,-0.0323,-0.032,-0.0285,-0.0291,-0.0285,-0.0244,-0.0245,-0.0237,-0.0222,-0.0164,-0.0152,-0.0199,-0.0105,-0.0093,-0.0059,-0.0056,-0.0037,-0.0033,0.0037,0.0036,0.0035,-0.0012,0,0,0,0,0,0,-0.0324,-0.0321,-0.0328,-0.0293,-0.0285,-0.0277,-0.0245,-0.0236,-0.0221,-0.0216,-0.0155,-0.0143,-0.0104,-0.0066,-0.0055,-0.005,-0.003,0.0037,0.0036,0.0035,-0.001,-0.0015,-0.0019,0,0,0,0,0,-0.0325,-0.0341,-0.0329,-0.0326,-0.0295,-0.0278,-0.0271,-0.0238,-0.0221,-0.0222,-0.018,-0.0145,-0.0064,-0.0063,-0.005,-0.0044,0.0038,0.0037,0.0036,-0.0008,-0.0014,-0.0018,0,0,0,0,0,0,-0.0357,-0.0336,-0.0322,-0.033,-0.0309,-0.0269,-0.0268,-0.0244,-0.0212,-0.0207,-0.0149,-0.0135,-0.0106,-0.0073,-0.0074,-0.0027,-0.0008,-0.0007,-0.0046,-0.0051,-0.0055,-0.0065,-0.0027,0,0,0,0,0,-0.0368,-0.0375,-0.0345,-0.0353,-0.0345,-0.0307,-0.0296,-0.0274,-0.0241,-0.0226,-0.0183,-0.014,-0.0101,-0.0076,-0.0042,-0.0014,0.0033,-0.0003,-0.0008,-0.0011,-0.0013,0.0063,0.0066,0.0031,0.0031,0.0031,0,0,-0.0383,-0.0373,-0.0377,-0.036,-0.0341,-0.0338,-0.0299,-0.0289,-0.028,-0.0218,-0.0195,-0.0155,-0.01,-0.007,-0.0054,-0.004,0.0021,-0.0013,-0.0016,-0.0015,0.0062,0.0066,0.0069,0.003,0.0031,0.0031,0,0,-0.0423,-0.0408,-0.0428,-0.0415,-0.0395,-0.0366,-0.0366,-0.033,-0.0306,-0.0281,-0.0235,-0.0191,-0.014,-0.0092,-0.0062,-0.0069,-0.0008,-0.0065,-0.0083,-0.001,-0.0006,-0.0002,0.0056,0.0066,-0.006,-0.006,-0.0061,0,-0.0442,-0.0461,-0.043,-0.0445,-0.044,-0.0383,-0.0399,-0.0364,-0.0321,-0.0298,-0.0284,-0.0193,-0.0146,-0.0091,-0.0096,-0.0075,-0.0033,-0.0067,-0.0014,-0.0009,-0.0004,0.0055,0.0066,-0.0063,-0.0063,-0.0062,-0.0062,0,-0.0496,-0.0507,-0.0518,-0.0514,-0.0503,-0.0507,-0.046,-0.0436,-0.0398,-0.0356,-0.0302,-0.0235,-0.0176,-0.0156,-0.0126,-0.0071,-0.0053,-0.0032,0.0001,-0.0003,0.0059,0.0072,-0.0066,-0.0065,-0.0065,-0.0064,0,0,-0.0546,-0.0555,-0.0559,-0.057,-0.0542,-0.0538,-0.0515,-0.0474,-0.045,-0.0391,-0.0353,-0.0279,-0.0232,-0.0197,-0.0143,-0.008,-0.0008,-0.0049,-0.0044,0.0012,0.0144,0.0188,0.0207,0.0024,0.0026,0.0027,0.0171,0,-0.0596,-0.0649,-0.0629,-0.0658,-0.0677,-0.0617,-0.0605,-0.0556,-0.0493,-0.0439,-0.0344,-0.0293,-0.0248,-0.022,-0.0147,-0.0043,0.0023,-0.005,0.0137,0.0142,0.0185,0.0223,0.0244,0.0377,0.0184,0.0186,0.0188,0,-0.0655,-0.0683,-0.0734,-0.0736,-0.0737,-0.0739,-0.0693,-0.0668,-0.0566,-0.0518,-0.043,-0.0354,-0.0248,-0.0216,-0.0026,-0.0076,0.0024,0.0106,0.0114,0.0182,0.021,0.0351,0.0408,0.0566,0.0208,0.0206,0.0205,0,-0.072,-0.0749,-0.0793,-0.0797,-0.0791,-0.0791,-0.0772,-0.0697,-0.067,-0.0556,-0.0518,-0.0381,-0.0308,-0.0162,0.0013,-0.0004,0.0225,0.0228,0.0364,0.0367,0.0437,0.0444,0.0674,0.0362,0.0361,0.0361,0.036,0,-0.0783,-0.0814,-0.083,-0.0857,-0.0899,-0.0861,-0.0865,-0.0817,-0.0741,-0.0705,-0.0564,-0.0499,-0.0292,-0.0135,0.0014,0.024,0.0237,0.0374,0.0417,0.0419,0.0422,0.0602,0.0663,0.0366,0.0365,0.0364,0.0363,0,-0.0847,-0.0856,-0.091,-0.0928,-0.0936,-0.0964,-0.0947,-0.0938,-0.0851,-0.0793,-0.0763,-0.0576,-0.036,-0.0142,0.0113,0.0245,0.056,0.0524,0.0505,0.0544,0.08,0.0855,0.113,0.123,0.0696,0.0698,0.07,0,-0.0884,-0.0922,-0.0978,-0.1018,-0.103,-0.1056,-0.1075,-0.1009,-0.0986,-0.0837,-0.0814,-0.0596,-0.0424,-0.0021,0.0257,0.0553,0.0671,0.073,0.0704,0.0839,0.0933,0.0972,0.1038,0.0776,0.0778,0.078,0.0781,0,-0.0953,-0.0972,-0.102,-0.1114,-0.1155,-0.1189,-0.1197,-0.1199,-0.1099,-0.1023,-0.0875,-0.0722,-0.0314,0.0056,0.0445,0.0609,0.0856,0.0775,0.0937,0.1039,0.1078,0.1186,0.0642,0.0798,0.0796,0.0795,0.0794,0.0793,-0.0995,-0.1053,-0.1121,-0.1204,-0.1259,-0.1306,-0.1324,-0.1297,-0.1251,-0.1111,-0.0946,-0.0678,-0.0128,0.0438,0.0651,0.1064,0.102,0.1159,0.1221,0.1254,0.1341,0.0824,0.1012,0.1011,0.1011,0.1011,0.101,0,-0.1045,-0.1113,-0.1204,-0.1299,-0.137,-0.1372,-0.1391,-0.1369,-0.1311,-0.1141,-0.0958,-0.0368,0.0178,0.0679,0.1295,0.1506,0.1547,0.1589,0.1655,0.1706,0.1279,0.1271,0.1496,0.1496,0.1496,0.1496,0.1495,0.1495,-0.1073,-0.1175,-0.123,-0.1369,-0.1428,-0.1478,-0.1481,-0.1427,-0.1304,-0.1006,-0.0686,-0.0413,0.032,0.1349,0.1913,0.1941,0.2125,0.2084,0.2201,0.1895,0.1859,0.1824,0.1834,0.2174,0.2174,0.2604,0.2608,0.2611]}],[{"header":{"parameterUnit":"m.s-1","parameterCategory":2,"la1":30.2991,"la2":30.254,"lo1":-89.0895,"lo2":-89.0444,"dy":0.0017,"dx":0.0017,"nx":28,"ny":28,"refTime":"2024-02-07T09:00:00:Z","depth":"2","parameterNumber":2,"parameterNumberName":"U-component_of_CURRENTS"},"data":[0,0,0,0,0,0,0,0,0,0,0,0,0,0,0,0,0,0,0,0,0,0,0,0,0,0,0,0,0,0,0,0,0,0,0,0,0,0,0,0,0,0,0,0,0,0,0,0,0,0,0,0,0,0,0,0,0,0,-0.2535,-0.2535,0,-0.2575,-0.2575,-0.2575,-0.2567,-0.2566,-0.2566,-0.2565,-0.2595,-0.2596,-0.2597,0,0,0,0,0,0,0,0,0,0,0,0,0,-0.2458,-0.2459,-0.2535,-0.2535,-0.2536,-0.2575,-0.2575,-0.2575,-0.2567,-0.2566,-0.2566,-0.2565,-0.2594,-0.2596,-0.2597,0,0,0,0,0,0,0,0,0,0,0,0,0,-0.2491,-0.2459,-0.2535,-0.2538,-0.2539,-0.2575,-0.2575,-0.2576,-0.2567,-0.2566,-0.2565,-0.2565,-0.2594,-0.2595,-0.2597,-0.2625,0,0,-0.2603,-0.2604,0,0,0,0,0,0,0,0,-0.249,-0.2494,-0.2537,-0.2538,-0.2539,-0.2567,-0.2559,-0.2592,-0.2567,-0.2554,-0.2565,-0.2564,-0.2587,-0.2589,-0.2595,-0.2627,-0.2628,-0.2603,-0.2605,-0.2605,-0.2606,0,0,0,0,0,0,0,-0.2487,-0.2492,-0.2548,-0.2538,-0.2539,-0.2541,-0.2544,-0.2565,-0.2572,-0.2555,-0.2555,-0.2564,-0.2587,-0.2593,-0.2596,-0.2628,-0.2603,-0.2605,-0.2606,-0.2607,-0.2681,-0.2681,0,0,0,0,0,0,-0.2488,-0.249,-0.2547,-0.255,-0.2515,-0.2543,-0.2547,-0.2557,-0.2572,-0.2574,-0.2564,-0.2563,-0.259,-0.2593,-0.2597,-0.264,-0.2605,-0.2607,-0.2608,-0.268,-0.2681,-0.2682,0,0,0,0,0,0,-0.2486,-0.2493,-0.2545,-0.2522,-0.2529,-0.2545,-0.2557,-0.2558,-0.2567,-0.258,-0.2581,-0.2572,-0.259,-0.2594,-0.2615,-0.264,-0.2608,-0.261,-0.2679,-0.268,-0.2681,-0.272,0,0,0,0,0,0,-0.2484,-0.2492,-0.2499,-0.2523,-0.2531,-0.2575,-0.2558,-0.256,-0.2575,-0.2573,-0.2587,-0.2589,-0.259,-0.2612,-0.2617,-0.2642,-0.2611,-0.2678,-0.2679,-0.2681,-0.2717,-0.2722,-0.2726,0,0,0,0,0,-0.2481,-0.2495,-0.2499,-0.2506,-0.254,-0.2576,-0.2581,-0.2587,-0.2576,-0.2589,-0.259,-0.2588,-0.2625,-0.2615,-0.262,-0.2646,-0.2677,-0.2679,-0.2681,-0.2716,-0.2721,-0.2726,0,0,0,0,0,0,-0.246,-0.2496,-0.2501,-0.2523,-0.2552,-0.2575,-0.2587,-0.2592,-0.2604,-0.26,-0.2601,-0.2603,-0.2633,-0.2633,-0.2621,-0.2671,-0.2651,-0.2654,-0.2675,-0.2681,-0.2685,-0.2679,-0.2613,0,0,0,0,0,-0.2462,-0.2481,-0.2516,-0.2533,-0.2549,-0.2569,-0.2583,-0.2592,-0.2607,-0.2611,-0.262,-0.2629,-0.2646,-0.2656,-0.2671,-0.2701,-0.2681,-0.272,-0.2724,-0.2728,-0.2726,-0.2714,-0.2717,-0.2688,-0.2688,-0.2688,0,0,-0.2456,-0.2479,-0.2488,-0.253,-0.2549,-0.2584,-0.2574,-0.2604,-0.2628,-0.2615,-0.2643,-0.2648,-0.2657,-0.2687,-0.2701,-0.269,-0.2725,-0.273,-0.2733,-0.2729,-0.2716,-0.2719,-0.2722,-0.2689,-0.2689,-0.2688,0,0,-0.2462,-0.2479,-0.2502,-0.2532,-0.2573,-0.2593,-0.2604,-0.2637,-0.2647,-0.268,-0.2673,-0.2685,-0.2718,-0.2723,-0.2731,-0.2768,-0.2749,-0.278,-0.2799,-0.2789,-0.2791,-0.2792,-0.2766,-0.2765,-0.2782,-0.2782,-0.2782,0,-0.2455,-0.249,-0.2514,-0.255,-0.2574,-0.2599,-0.2633,-0.2656,-0.269,-0.2701,-0.2694,-0.2727,-0.2733,-0.2762,-0.2773,-0.2779,-0.2763,-0.278,-0.2793,-0.2795,-0.2795,-0.2768,-0.2766,-0.2784,-0.2784,-0.2784,-0.2783,0,-0.2485,-0.2515,-0.2533,-0.2586,-0.2617,-0.265,-0.2691,-0.2719,-0.2732,-0.2749,-0.2779,-0.2781,-0.2797,-0.2807,-0.2803,-0.2822,-0.2804,-0.28,-0.2778,-0.2801,-0.277,-0.2768,-0.2787,-0.2786,-0.2786,-0.2785,0,0,-0.2454,-0.2538,-0.2542,-0.2573,-0.2638,-0.2665,-0.2716,-0.2763,-0.2787,-0.2813,-0.2835,-0.2858,-0.2851,-0.2857,-0.2854,-0.2845,-0.2837,-0.2828,-0.2827,-0.2798,-0.2801,-0.2735,-0.2726,-0.2836,-0.2836,-0.2836,-0.2776,0,-0.2468,-0.2532,-0.2575,-0.2633,-0.2667,-0.2715,-0.2757,-0.2801,-0.283,-0.286,-0.2865,-0.2885,-0.2874,-0.2878,-0.2871,-0.2852,-0.2833,-0.2852,-0.2787,-0.2785,-0.272,-0.2722,-0.2545,-0.2472,-0.2773,-0.2773,-0.2772,0,-0.2476,-0.252,-0.2577,-0.2654,-0.2674,-0.2713,-0.2775,-0.2822,-0.2874,-0.2893,-0.2914,-0.2918,-0.2924,-0.2902,-0.2871,-0.2886,-0.2844,-0.2817,-0.2814,-0.2736,-0.2714,-0.2499,-0.2455,-0.2768,-0.2768,-0.2768,-0.2769,0,-0.2424,-0.2515,-0.2557,-0.2585,-0.268,-0.2709,-0.2758,-0.282,-0.2852,-0.2908,-0.2924,-0.294,-0.2937,-0.2905,-0.286,-0.2866,-0.2808,-0.2808,-0.2703,-0.2697,-0.2524,-0.2503,-0.2765,-0.2765,-0.2765,-0.2765,-0.2765,0,-0.2411,-0.2442,-0.2536,-0.2557,-0.2602,-0.2681,-0.2725,-0.2781,-0.2845,-0.2871,-0.2928,-0.2934,-0.2936,-0.291,-0.2865,-0.2773,-0.2809,-0.2698,-0.2677,-0.2532,-0.2514,-0.2756,-0.2755,-0.2763,-0.2763,-0.2764,-0.2764,0,-0.2338,-0.2407,-0.2453,-0.2549,-0.2577,-0.2604,-0.2694,-0.2719,-0.2804,-0.2838,-0.2854,-0.292,-0.2894,-0.2875,-0.2819,-0.2764,-0.2693,-0.2645,-0.2471,-0.2431,-0.2587,-0.259,-0.2525,-0.2522,-0.2519,-0.2517,-0.2516,0,-0.2306,-0.2322,-0.2415,-0.2431,-0.247,-0.2527,-0.2555,-0.2668,-0.27,-0.2811,-0.2812,-0.2835,-0.2814,-0.2732,-0.2645,-0.2547,-0.2613,-0.2323,-0.2302,-0.2576,-0.2562,-0.2569,-0.2575,-0.2082,-0.2077,-0.2072,-0.2069,0,-0.2224,-0.2256,-0.2288,-0.2326,-0.2358,-0.2404,-0.2465,-0.2487,-0.2612,-0.2648,-0.2693,-0.2696,-0.2654,-0.2487,-0.2385,-0.2304,-0.2333,-0.2235,-0.255,-0.2183,-0.2156,-0.2145,-0.2165,-0.2032,-0.2036,-0.2038,-0.204,-0.2042,-0.2137,-0.2134,-0.2173,-0.2196,-0.2236,-0.2261,-0.2238,-0.2316,-0.2348,-0.237,-0.2486,-0.2424,-0.2409,-0.2167,-0.2045,-0.195,-0.2105,-0.2001,-0.2015,-0.2032,-0.2005,-0.1977,-0.1812,-0.1814,-0.1816,-0.1818,-0.182,0,-0.202,-0.2029,-0.2041,-0.2061,-0.204,-0.2118,-0.2149,-0.2096,-0.2069,-0.2132,-0.2138,-0.1939,-0.1841,-0.1824,-0.1629,-0.1585,-0.1567,-0.1509,-0.1491,-0.153,-0.1564,-0.1513,-0.1189,-0.1187,-0.1185,-0.1183,0,0,-0.1956,-0.192,-0.1929,-0.1856,-0.1863,-0.1784,-0.1762,-0.1714,-0.1716,-0.1643,-0.1616,-0.1754,-0.1796,-0.1498,-0.1422,-0.1277,-0.1387,-0.1213,-0.1724,-0.1743,-0.1775,-0.1857,-0.1823,0,0,0,0,0]},{"header":{"parameterUnit":"m.s-1","parameterCategory":2,"la1":30.2991,"la2":30.254,"lo1":-89.0895,"lo2":-89.0444,"dy":0.0017,"dx":0.0017,"nx":28,"ny":28,"refTime":"2024-02-07T09:00:00:Z","depth":"2","parameterNumber":3,"parameterNumberName":"V-component_of_CURRENTS"},"data":[0,0,0,0,0,0,0,0,0,0,0,0,0,0,0,0,0,0,0,0,0,0,0,0,0,0,0,0,0,0,0,0,0,0,0,0,0,0,0,0,0,0,0,0,0,0,0,0,0,0,0,0,0,0,0,0,0,0,-0.0337,-0.0337,0,-0.0279,-0.0278,-0.0278,-0.023,-0.023,-0.0229,-0.0229,-0.0127,-0.0125,-0.0123,0,0,0,0,0,0,0,0,0,0,0,0,0,-0.0359,-0.0359,-0.0337,-0.0337,-0.0336,-0.0279,-0.0278,-0.0277,-0.023,-0.023,-0.0229,-0.0229,-0.0128,-0.0125,-0.0122,0,0,0,0,0,0,0,0,0,0,0,0,0,-0.0329,-0.0359,-0.0337,-0.0307,-0.0303,-0.0279,-0.0278,-0.0277,-0.023,-0.023,-0.0229,-0.0229,-0.0129,-0.0126,-0.0122,-0.0111,0,0,-0.0111,-0.011,0,0,0,0,0,0,0,0,-0.0331,-0.0328,-0.0312,-0.0309,-0.0305,-0.0263,-0.0249,-0.022,-0.023,-0.0256,-0.0229,-0.0228,-0.017,-0.0163,-0.0152,-0.0106,-0.0102,-0.0111,-0.0109,-0.0107,-0.0106,0,0,0,0,0,0,0,-0.0333,-0.033,-0.0313,-0.0311,-0.0307,-0.0279,-0.0275,-0.0243,-0.0215,-0.0254,-0.0251,-0.0247,-0.0167,-0.0155,-0.0149,-0.01,-0.0111,-0.0108,-0.0106,-0.0104,-0.0046,-0.0046,0,0,0,0,0,0,-0.0346,-0.0332,-0.0314,-0.0311,-0.0318,-0.028,-0.0274,-0.0276,-0.0216,-0.0207,-0.0248,-0.0245,-0.0162,-0.0153,-0.0145,-0.0126,-0.0107,-0.0104,-0.0102,-0.0045,-0.0046,-0.0046,0,0,0,0,0,0,-0.0347,-0.0345,-0.0317,-0.0321,-0.0316,-0.028,-0.0282,-0.0275,-0.0262,-0.0212,-0.0202,-0.0242,-0.0161,-0.015,-0.0122,-0.0122,-0.0102,-0.0099,-0.0044,-0.0045,-0.0046,-0.009,0,0,0,0,0,0,-0.0348,-0.0346,-0.0352,-0.0322,-0.0316,-0.0311,-0.0282,-0.0274,-0.0261,-0.0257,-0.0204,-0.0194,-0.016,-0.0128,-0.0118,-0.0117,-0.0096,-0.0044,-0.0045,-0.0046,-0.0088,-0.0092,-0.0096,0,0,0,0,0,-0.0349,-0.0364,-0.0353,-0.0351,-0.0326,-0.0312,-0.0306,-0.0278,-0.0262,-0.0263,-0.0226,-0.0196,-0.0128,-0.0125,-0.0114,-0.0111,-0.0043,-0.0044,-0.0046,-0.0086,-0.0091,-0.0096,0,0,0,0,0,0,-0.0377,-0.0359,-0.0347,-0.0356,-0.0338,-0.0305,-0.0304,-0.0283,-0.0255,-0.025,-0.0199,-0.0187,-0.0165,-0.0136,-0.0134,-0.01,-0.0082,-0.0081,-0.0116,-0.0121,-0.0125,-0.0131,-0.0093,0,0,0,0,0,-0.0387,-0.0394,-0.0369,-0.0377,-0.037,-0.0337,-0.0328,-0.0309,-0.0281,-0.0268,-0.0231,-0.0194,-0.0162,-0.0141,-0.0113,-0.009,-0.0048,-0.0084,-0.0088,-0.0091,-0.0091,-0.0026,-0.0024,-0.0051,-0.0051,-0.0051,0,0,-0.04,-0.0392,-0.0396,-0.0383,-0.0367,-0.0366,-0.033,-0.0323,-0.0317,-0.0261,-0.0244,-0.0208,-0.0162,-0.0139,-0.0126,-0.0113,-0.0064,-0.0093,-0.0096,-0.0093,-0.0027,-0.0024,-0.0022,-0.0052,-0.0051,-0.0051,0,0,-0.0436,-0.0423,-0.0442,-0.0433,-0.0416,-0.0392,-0.0393,-0.0362,-0.0342,-0.0322,-0.0281,-0.0244,-0.0202,-0.0162,-0.0137,-0.0147,-0.0092,-0.0144,-0.016,-0.0098,-0.0095,-0.0092,-0.004,-0.0031,-0.0141,-0.0141,-0.0141,0,-0.0453,-0.0473,-0.0445,-0.046,-0.0458,-0.0408,-0.0424,-0.0396,-0.0359,-0.034,-0.0326,-0.025,-0.0209,-0.0166,-0.017,-0.0153,-0.0115,-0.0144,-0.0102,-0.0098,-0.0093,-0.0041,-0.0031,-0.0143,-0.0143,-0.0142,-0.0142,0,-0.0503,-0.0516,-0.0526,-0.0526,-0.0519,-0.0524,-0.0485,-0.0466,-0.0433,-0.0398,-0.0353,-0.0294,-0.0245,-0.0228,-0.0199,-0.0153,-0.0135,-0.0117,-0.0087,-0.0093,-0.0038,-0.0027,-0.0146,-0.0145,-0.0145,-0.0144,0,0,-0.0547,-0.056,-0.0564,-0.0577,-0.0556,-0.0556,-0.0539,-0.0507,-0.049,-0.0438,-0.0409,-0.0344,-0.03,-0.027,-0.0222,-0.0164,-0.01,-0.0133,-0.0128,-0.0078,0.0033,0.0069,0.0085,-0.0073,-0.0071,-0.007,0.0058,0,-0.0593,-0.0645,-0.063,-0.0663,-0.0683,-0.0634,-0.0627,-0.0587,-0.0534,-0.049,-0.0405,-0.0363,-0.0318,-0.0293,-0.0227,-0.0132,-0.0072,-0.0137,0.0028,0.0032,0.007,0.0099,0.0064,0.0176,0.0069,0.0071,0.0072,0,-0.0647,-0.0675,-0.0727,-0.0738,-0.0741,-0.0746,-0.0714,-0.0696,-0.061,-0.0569,-0.0493,-0.0425,-0.033,-0.0296,-0.0124,-0.0168,-0.0075,0.0001,0.0008,0.0067,0.009,0.0166,0.0201,0.0091,0.009,0.0088,0.0087,0,-0.0704,-0.0737,-0.0783,-0.0789,-0.0792,-0.0797,-0.0785,-0.0723,-0.0705,-0.0608,-0.0578,-0.0455,-0.0389,-0.0256,-0.0093,-0.0107,0.0099,0.0102,0.0223,0.0226,0.0242,0.0244,0.0222,0.0222,0.0222,0.0222,0.0221,0,-0.0762,-0.0794,-0.0815,-0.0843,-0.0888,-0.0859,-0.0872,-0.0834,-0.0773,-0.0747,-0.0622,-0.0569,-0.0376,-0.0235,-0.0096,0.0108,0.0104,0.0232,0.027,0.0224,0.0223,0.0182,0.0175,0.0226,0.0225,0.0224,0.0224,0,-0.0817,-0.083,-0.0886,-0.0911,-0.0921,-0.0951,-0.0949,-0.0947,-0.0875,-0.0832,-0.0806,-0.0642,-0.0448,-0.0247,-0.0015,0.0107,0.0292,0.036,0.0291,0.0318,0.0374,0.0363,0.0507,0.051,0.0512,0.0513,0.0515,0,-0.0851,-0.0887,-0.0948,-0.0988,-0.1004,-0.1036,-0.1058,-0.1009,-0.0996,-0.0876,-0.0859,-0.0666,-0.0516,-0.0151,0.0101,0.037,0.0361,0.0481,0.0454,0.0385,0.0407,0.0393,0.038,0.0454,0.0455,0.0455,0.0456,0,-0.0912,-0.0933,-0.0981,-0.1072,-0.1116,-0.1157,-0.1173,-0.1181,-0.1104,-0.1044,-0.0922,-0.0791,-0.0429,-0.012,0.0233,0.0373,0.0437,0.0505,0.0476,0.0382,0.0345,0.0362,0.035,0.0462,0.0462,0.0461,0.0461,0.0461,-0.095,-0.1004,-0.1071,-0.1152,-0.121,-0.1261,-0.1282,-0.1268,-0.1238,-0.1122,-0.0986,-0.0756,-0.0443,0.0061,0.0321,0.0549,0.0528,0.0577,0.0571,0.0565,0.0531,0.0499,0.0639,0.0639,0.0639,0.064,0.064,0,-0.0993,-0.1057,-0.1143,-0.1238,-0.1308,-0.1317,-0.1344,-0.1325,-0.1282,-0.1142,-0.0989,-0.0638,-0.0274,0.0048,0.0425,0.0649,0.0616,0.0672,0.0591,0.0583,0.0577,0.054,0.0653,0.0654,0.0655,0.0655,0,0,-0.1018,-0.111,-0.1161,-0.1294,-0.1356,-0.1408,-0.1416,-0.1366,-0.1261,-0.111,-0.0934,-0.0683,-0.0276,-0.0002,0.0288,0.0489,0.047,0.0494,0.0457,0.0319,0.031,0.0492,0.0424,0,0,0,0,0]}],[{"header":{"parameterUnit":"m.s-1","parameterCategory":2,"la1":30.2991,"la2":30.254,"lo1":-89.0895,"lo2":-89.0444,"dy":0.0017,"dx":0.0017,"nx":28,"ny":28,"refTime":"2024-02-07T09:00:00:Z","depth":"4","parameterNumber":2,"parameterNumberName":"U-component_of_CURRENTS"},"data":[0,0,0,0,0,0,0,0,0,0,0,0,0,0,0,0,0,0,0,0,0,0,0,0,0,0,0,0,0,0,0,0,0,0,0,0,0,0,0,0,0,0,0,0,0,0,0,0,0,0,0,0,0,0,0,0,0,0,-0.1736,-0.1736,0,-0.1805,-0.1806,-0.1806,-0.1854,-0.1854,-0.1855,-0.1855,-0.194,-0.1942,-0.1943,0,0,0,0,0,0,0,0,0,0,0,0,0,-0.1643,-0.1644,-0.1735,-0.1736,-0.1738,-0.1805,-0.1806,-0.1806,-0.1853,-0.1854,-0.1855,-0.1855,-0.1939,-0.1941,-0.1944,0,0,0,0,0,0,0,0,0,0,0,0,0,-0.1693,-0.1645,-0.1735,-0.1771,-0.1775,-0.1805,-0.1806,-0.1807,-0.1853,-0.1854,-0.1855,-0.1856,-0.1939,-0.1941,-0.1944,-0.1945,0,0,-0.1952,-0.1953,0,0,0,0,0,0,0,0,-0.169,-0.1696,-0.1764,-0.1768,-0.1773,-0.1823,-0.1804,-0.1854,-0.1853,-0.1821,-0.1855,-0.1856,-0.1903,-0.1909,-0.1917,-0.1949,-0.1952,-0.1952,-0.1954,-0.1955,-0.1956,0,0,0,0,0,0,0,-0.1687,-0.1693,-0.1761,-0.1765,-0.1771,-0.1783,-0.1791,-0.1814,-0.1856,-0.1824,-0.1828,-0.1839,-0.1905,-0.1914,-0.1919,-0.1954,-0.1952,-0.1955,-0.1956,-0.1957,-0.206,-0.2061,0,0,0,0,0,0,-0.1681,-0.169,-0.1759,-0.1763,-0.1735,-0.1784,-0.1793,-0.1805,-0.1855,-0.1864,-0.1838,-0.1841,-0.1909,-0.1916,-0.1923,-0.2003,-0.1955,-0.1958,-0.1959,-0.2059,-0.206,-0.2061,0,0,0,0,0,0,-0.1679,-0.1687,-0.1756,-0.173,-0.174,-0.1785,-0.1798,-0.1806,-0.1847,-0.1866,-0.1875,-0.1875,-0.191,-0.1919,-0.1969,-0.2004,-0.1959,-0.1961,-0.2057,-0.2059,-0.2061,-0.2115,0,0,0,0,0,0,-0.1676,-0.1685,-0.1707,-0.1729,-0.1741,-0.1797,-0.1798,-0.1806,-0.1851,-0.1856,-0.19,-0.1907,-0.1911,-0.1965,-0.1972,-0.2007,-0.1963,-0.2056,-0.2058,-0.206,-0.2112,-0.2119,-0.2124,0,0,0,0,0,-0.1672,-0.1694,-0.1708,-0.1717,-0.1765,-0.1798,-0.1806,-0.1838,-0.1852,-0.1877,-0.1905,-0.1907,-0.1983,-0.1968,-0.1976,-0.2013,-0.2055,-0.2057,-0.206,-0.2109,-0.2118,-0.2124,0,0,0,0,0,0,-0.1665,-0.1701,-0.1717,-0.175,-0.1783,-0.1807,-0.1837,-0.1856,-0.1897,-0.1911,-0.1924,-0.1933,-0.199,-0.1991,-0.1975,-0.2046,-0.2018,-0.2022,-0.2053,-0.2061,-0.2067,-0.2058,-0.1965,0,0,0,0,0,-0.1673,-0.1701,-0.1734,-0.1763,-0.1783,-0.1815,-0.1839,-0.1863,-0.1894,-0.1915,-0.1945,-0.1974,-0.2,-0.2024,-0.2046,-0.2089,-0.2068,-0.2115,-0.2121,-0.2126,-0.2123,-0.212,-0.2126,-0.2069,-0.2069,-0.2069,0,0,-0.1679,-0.1703,-0.172,-0.1765,-0.1793,-0.1828,-0.1833,-0.1879,-0.1914,-0.1917,-0.1983,-0.2002,-0.2016,-0.2063,-0.2088,-0.2074,-0.2132,-0.213,-0.2134,-0.2128,-0.2124,-0.2129,-0.2134,-0.2071,-0.2071,-0.2071,0,0,-0.1694,-0.1727,-0.1754,-0.1786,-0.1837,-0.1858,-0.1879,-0.1925,-0.1956,-0.2012,-0.2021,-0.2057,-0.2109,-0.2119,-0.2129,-0.2181,-0.2164,-0.2199,-0.2227,-0.2225,-0.2229,-0.2233,-0.2211,-0.2212,-0.2202,-0.2202,-0.2203,0,-0.1703,-0.1738,-0.1769,-0.1803,-0.1834,-0.1875,-0.1912,-0.1948,-0.2007,-0.2032,-0.2044,-0.2112,-0.2129,-0.2168,-0.2188,-0.2196,-0.2186,-0.22,-0.2232,-0.2235,-0.2238,-0.2215,-0.2216,-0.2205,-0.2205,-0.2205,-0.2205,0,-0.1729,-0.1771,-0.1791,-0.1847,-0.1885,-0.1926,-0.1975,-0.2025,-0.2067,-0.2095,-0.2157,-0.2178,-0.2212,-0.2229,-0.2229,-0.2263,-0.2246,-0.2239,-0.2212,-0.2247,-0.222,-0.222,-0.221,-0.2209,-0.2208,-0.2207,0,0,-0.1707,-0.1794,-0.1803,-0.1839,-0.1914,-0.1943,-0.2012,-0.2071,-0.2113,-0.2172,-0.2215,-0.2263,-0.2274,-0.2285,-0.2292,-0.2295,-0.2308,-0.2283,-0.2282,-0.2258,-0.2294,-0.2159,-0.2145,-0.2313,-0.2313,-0.2313,-0.2267,0,-0.172,-0.1783,-0.1829,-0.1898,-0.1933,-0.1997,-0.2051,-0.2113,-0.2166,-0.2219,-0.2248,-0.2292,-0.2296,-0.2317,-0.2324,-0.2318,-0.231,-0.232,-0.2266,-0.2264,-0.2136,-0.2141,-0.2315,-0.2267,-0.2266,-0.2266,-0.2266,0,-0.172,-0.1765,-0.1832,-0.192,-0.1943,-0.1996,-0.2084,-0.2141,-0.2218,-0.2258,-0.2306,-0.2328,-0.236,-0.2348,-0.2347,-0.2358,-0.2329,-0.2312,-0.2309,-0.216,-0.2127,-0.2225,-0.2265,-0.2265,-0.2265,-0.2265,-0.2265,0,-0.1665,-0.1763,-0.1817,-0.1849,-0.1955,-0.2005,-0.2067,-0.2153,-0.2196,-0.2282,-0.2313,-0.2357,-0.2378,-0.2366,-0.2344,-0.2352,-0.2318,-0.2319,-0.2162,-0.2152,-0.2266,-0.2262,-0.2294,-0.2294,-0.2294,-0.2294,-0.2295,0,-0.1636,-0.1683,-0.1803,-0.183,-0.1897,-0.1985,-0.2056,-0.2126,-0.2209,-0.2242,-0.2327,-0.2338,-0.2386,-0.2376,-0.2348,-0.2245,-0.2319,-0.2154,-0.2128,-0.229,-0.229,-0.2265,-0.2262,-0.2293,-0.2293,-0.2293,-0.2294,0,-0.1557,-0.164,-0.1705,-0.1828,-0.1871,-0.1918,-0.2039,-0.2072,-0.2178,-0.2222,-0.2248,-0.2328,-0.2316,-0.2328,-0.23,-0.2227,-0.2157,-0.2098,-0.226,-0.2246,-0.1992,-0.1993,-0.1915,-0.191,-0.1905,-0.1901,-0.1898,0,-0.1517,-0.1545,-0.1681,-0.1715,-0.1776,-0.1863,-0.1907,-0.2035,-0.2064,-0.2185,-0.2178,-0.2223,-0.2251,-0.21,-0.2138,-0.2061,-0.2036,-0.1986,-0.1994,-0.1969,-0.1952,-0.196,-0.1967,-0.1891,-0.189,-0.1889,-0.1888,0,-0.143,-0.1494,-0.1543,-0.1616,-0.1677,-0.1736,-0.1816,-0.1822,-0.195,-0.2063,-0.2046,-0.2033,-0.2015,-0.1995,-0.1948,-0.1896,-0.2016,-0.1939,-0.1948,-0.1956,-0.194,-0.1929,-0.1941,-0.1872,-0.1875,-0.1876,-0.1877,0,-0.1359,-0.1369,-0.1442,-0.149,-0.1562,-0.1581,-0.1645,-0.1676,-0.1727,-0.1866,-0.185,-0.1907,-0.1989,-0.1906,-0.1862,-0.1804,-0.1777,-0.1716,-0.1736,-0.1754,-0.1723,-0.168,-0.1495,0,0,0,0,0,-0.1277,-0.1273,-0.1307,-0.135,-0.1414,-0.1457,-0.1564,-0.163,-0.1754,-0.1689,-0.1768,-0.1744,-0.1702,-0.1735,-0.1637,-0.1779,-0.1779,-0.1658,-0.1719,-0.1787,-0.1805,-0.1783,0,0,0,0,0,0,-0.1219,-0.1247,-0.1258,-0.122,-0.1218,-0.1274,-0.1335,-0.1424,-0.1406,-0.1539,-0.1523,-0.1626,-0.1607,-0.1718,-0.1595,-0.1602,-0.1601,-0.1702,-0.1697,-0.1777,-0.1793,-0.1807,-0.1791,0,0,0,0,0]},{"header":{"parameterUnit":"m.s-1","parameterCategory":2,"la1":30.2991,"la2":30.254,"lo1":-89.0895,"lo2":-89.0444,"dy":0.0017,"dx":0.0017,"nx":28,"ny":28,"refTime":"2024-02-07T09:00:00:Z","depth":"4","parameterNumber":3,"parameterNumberName":"V-component_of_CURRENTS"},"data":[0,0,0,0,0,0,0,0,0,0,0,0,0,0,0,0,0,0,0,0,0,0,0,0,0,0,0,0,0,0,0,0,0,0,0,0,0,0,0,0,0,0,0,0,0,0,0,0,0,0,0,0,0,0,0,0,0,0,-0.0265,-0.0265,0,-0.0232,-0.0232,-0.0231,-0.0204,-0.0204,-0.0203,-0.0203,-0.0136,-0.0135,-0.0133,0,0,0,0,0,0,0,0,0,0,0,0,0,-0.027,-0.027,-0.0265,-0.0265,-0.0265,-0.0232,-0.0232,-0.0231,-0.0204,-0.0204,-0.0203,-0.0203,-0.0137,-0.0135,-0.0133,0,0,0,0,0,0,0,0,0,0,0,0,0,-0.0254,-0.027,-0.0266,-0.0248,-0.0246,-0.0232,-0.0232,-0.0231,-0.0204,-0.0204,-0.0203,-0.0203,-0.0138,-0.0135,-0.0133,-0.0123,0,0,-0.0125,-0.0124,0,0,0,0,0,0,0,0,-0.0255,-0.0254,-0.0251,-0.0249,-0.0247,-0.0223,-0.0209,-0.0194,-0.0204,-0.0219,-0.0203,-0.0203,-0.0163,-0.0159,-0.0152,-0.012,-0.0117,-0.0125,-0.0124,-0.0123,-0.0122,0,0,0,0,0,0,0,-0.0256,-0.0255,-0.0251,-0.0251,-0.0249,-0.023,-0.0228,-0.0206,-0.0191,-0.0217,-0.0215,-0.0214,-0.0162,-0.0154,-0.015,-0.0116,-0.0125,-0.0123,-0.0122,-0.0121,-0.0088,-0.0088,0,0,0,0,0,0,-0.0265,-0.0256,-0.0252,-0.025,-0.0252,-0.0231,-0.0228,-0.023,-0.0192,-0.0187,-0.0214,-0.0213,-0.0158,-0.0153,-0.0147,-0.0142,-0.0123,-0.012,-0.0119,-0.0087,-0.0088,-0.0089,0,0,0,0,0,0,-0.0266,-0.0265,-0.0253,-0.0253,-0.0251,-0.0231,-0.0234,-0.023,-0.0225,-0.019,-0.0184,-0.0214,-0.0158,-0.0151,-0.0134,-0.0139,-0.0119,-0.0117,-0.0087,-0.0087,-0.0088,-0.0125,0,0,0,0,0,0,-0.0266,-0.0266,-0.0273,-0.0254,-0.0251,-0.0254,-0.0234,-0.0229,-0.0225,-0.0222,-0.0188,-0.0181,-0.0157,-0.0138,-0.0132,-0.0135,-0.0115,-0.0086,-0.0087,-0.0088,-0.0123,-0.0127,-0.0131,0,0,0,0,0,-0.0266,-0.0279,-0.0274,-0.0273,-0.0261,-0.0254,-0.0251,-0.0235,-0.0225,-0.0228,-0.0204,-0.0183,-0.0141,-0.0137,-0.0129,-0.0132,-0.0085,-0.0087,-0.0088,-0.0122,-0.0127,-0.0131,0,0,0,0,0,0,-0.0285,-0.0277,-0.0271,-0.0281,-0.0272,-0.025,-0.0254,-0.024,-0.0224,-0.0222,-0.0186,-0.0178,-0.0168,-0.0147,-0.0143,-0.0127,-0.0111,-0.0111,-0.0139,-0.0143,-0.0147,-0.0152,-0.0113,0,0,0,0,0,-0.0294,-0.0303,-0.0288,-0.0297,-0.0295,-0.0275,-0.0271,-0.026,-0.0242,-0.0235,-0.0211,-0.0187,-0.0168,-0.0154,-0.0136,-0.0123,-0.009,-0.0122,-0.0126,-0.0129,-0.0129,-0.008,-0.0078,-0.0093,-0.0093,-0.0093,0,0,-0.0304,-0.0301,-0.0306,-0.0302,-0.0294,-0.0298,-0.0272,-0.0271,-0.0272,-0.023,-0.0226,-0.0201,-0.0169,-0.0158,-0.0151,-0.0139,-0.0109,-0.0131,-0.0133,-0.0132,-0.0081,-0.0079,-0.0078,-0.0094,-0.0094,-0.0094,0,0,-0.0332,-0.0327,-0.0344,-0.0341,-0.0335,-0.032,-0.0323,-0.0305,-0.0295,-0.0286,-0.0258,-0.0233,-0.0208,-0.0181,-0.0164,-0.0177,-0.0134,-0.0177,-0.0192,-0.0144,-0.0142,-0.014,-0.0101,-0.0095,-0.0174,-0.0174,-0.0174,0,-0.0345,-0.0364,-0.0348,-0.0363,-0.0367,-0.0333,-0.0351,-0.0334,-0.0314,-0.0305,-0.0294,-0.0246,-0.0217,-0.0191,-0.0195,-0.0183,-0.0153,-0.0176,-0.0148,-0.0145,-0.0142,-0.0102,-0.0095,-0.0176,-0.0176,-0.0176,-0.0175,0,-0.0384,-0.04,-0.041,-0.0418,-0.0418,-0.0427,-0.0405,-0.0398,-0.0379,-0.0357,-0.0332,-0.0288,-0.0257,-0.0245,-0.0221,-0.0191,-0.0176,-0.0161,-0.0134,-0.0142,-0.0101,-0.0093,-0.0179,-0.0178,-0.0178,-0.0177,0,0,-0.0411,-0.0434,-0.0438,-0.0456,-0.045,-0.0455,-0.0453,-0.0439,-0.0435,-0.0401,-0.0388,-0.0342,-0.0309,-0.0288,-0.025,-0.0205,-0.0156,-0.0177,-0.0173,-0.0134,-0.0055,-0.0051,-0.0041,-0.0133,-0.0132,-0.0131,-0.0036,0,-0.0447,-0.0495,-0.049,-0.0528,-0.0549,-0.0524,-0.0528,-0.0508,-0.0477,-0.0453,-0.0391,-0.0367,-0.0327,-0.0311,-0.0258,-0.0183,-0.0136,-0.0184,-0.0056,-0.0052,-0.0043,-0.0032,-0.0127,-0.0029,-0.0027,-0.0026,-0.0025,0,-0.0485,-0.0513,-0.0564,-0.0591,-0.0597,-0.0613,-0.0609,-0.0604,-0.0552,-0.0526,-0.0475,-0.0425,-0.0354,-0.0322,-0.0187,-0.0219,-0.0144,-0.0081,-0.0076,-0.0052,-0.0033,-0.0018,-0.0009,-0.0011,-0.0012,-0.0013,-0.0014,0,-0.052,-0.0562,-0.0608,-0.0619,-0.0641,-0.0658,-0.0661,-0.063,-0.0626,-0.0566,-0.0549,-0.0457,-0.0408,-0.0302,-0.0169,-0.0177,-0.0017,-0.001,0.0066,0.0067,0.0051,0.0048,0.0084,0.0084,0.0084,0.0084,0.0084,0,-0.0555,-0.0592,-0.0633,-0.066,-0.0713,-0.0706,-0.0736,-0.0718,-0.0689,-0.0679,-0.059,-0.0555,-0.0399,-0.029,-0.0176,-0.0025,-0.0017,0.0068,0.0095,0.0031,0.0025,0.0057,0.0053,0.0087,0.0087,0.0086,0.0085,0,-0.0582,-0.0608,-0.0668,-0.0714,-0.0734,-0.077,-0.0801,-0.081,-0.0772,-0.0753,-0.0737,-0.0618,-0.0469,-0.0311,-0.0123,-0.0035,0.0105,0.0155,0.0074,0.0095,0.0156,0.0148,0.0243,0.0244,0.0245,0.0245,0.0246,0,-0.0598,-0.0633,-0.0716,-0.076,-0.0788,-0.0837,-0.0868,-0.0856,-0.0855,-0.0789,-0.0777,-0.064,-0.0542,-0.0268,-0.0109,0.0116,0.0143,0.0211,0.0184,0.0157,0.0174,0.0165,0.0156,0.0247,0.0248,0.0248,0.0248,0,-0.0626,-0.0662,-0.0712,-0.0806,-0.0864,-0.0917,-0.0953,-0.0958,-0.0923,-0.09,-0.079,-0.0645,-0.0472,-0.0264,-0.0081,0.0072,0.0164,0.0221,0.0219,0.0195,0.0163,0.0178,0.0168,0.0251,0.0251,0.025,0.025,0,-0.0645,-0.0691,-0.0763,-0.0841,-0.092,-0.0968,-0.0985,-0.0967,-0.0957,-0.0871,-0.0837,-0.0646,-0.0532,-0.0286,-0.0125,0.0037,0.0068,0.0107,0.0112,0.011,0.0042,-0.0019,0.0042,0,0,0,0,0,-0.0654,-0.0708,-0.0788,-0.0875,-0.0952,-0.099,-0.1027,-0.1024,-0.0993,-0.0919,-0.0872,-0.0707,-0.0443,-0.0329,-0.0165,-0.0125,0.0082,0.0069,0.0125,0.0268,0.0264,0.0207,0,0,0,0,0,0,-0.0663,-0.074,-0.0785,-0.0882,-0.0939,-0.1013,-0.1034,-0.1015,-0.096,-0.0907,-0.0762,-0.068,-0.0422,-0.0533,-0.0165,-0.0117,-0.0063,0.0195,0.0198,0.027,0.0267,0.0264,0.0204,0,0,0,0,0]}]]